[Date Prev][Date Next][Thread Prev][Thread Next][Date Index][Thread Index]

[jamsat-news:1596] jas2info #245



========================   ºÇ¿·¾ðÊó   ==============================

        Last updated ¡§6OCT2001 ¡¡18¡§50(JST)   #245

==================================================================
   
  £±¡Ë¥¢¥Þ¥Á¥å¥¢ÄÌ¿®±ÒÀ±¾ðÊ󡢣ƣϥ·¥ê¡¼¥º¤Îµ°Æ»Í×ÁÇ¡¢¥Æ¥ì¥á¥È¥ê¡¢£Ñ£Ó£Ï¤Î
¡¡¡¡¡¡¾õ¶·Åù¤ò¤Þ¤È¤á¤Æ¤ß¤Þ¤·¤¿¡¥
¡¡¡¡¡¡
¡¡¡¡¡¡£Æ£Ï¡Ý£²£¹¤Î£²£°£°£±Ç¯£±£°·î£¶Æü¡ÊÅڡˤΣ±£¸¡§£²£±¡Ê£Ê£Ó£Ô¡Ë¤Î¥Ñ¥¹¤Ç¤Ï
¡¡¡¡¥¢¥Ê¥í¥°±¿ÍѤǤ·¤¿¡£¡¡º£Æü¤Þ¤Ç¤Î´Ñ¬¤·¤¿¡£¥ì¥á¥È¥ê¡¼¤ÈºÇ½ª¤ÎʬÀÏ·ë²Ì¤ò
¡¡¡¡·ÇºÜ¤·¤Æ¤ª¤­¤Þ¤¹¡£

AS25369C1   06OCT2001
18:22-18:32(JST)
FREQ. 435.802-.790MHz
                                                            91 8D 8C 8E 8C 
HI HI AE C7 88 55 00 D4 A5 CC 09 42 87 6F 40 68 95 92 9B 5B 90 8D 8C 8D 8B 
HI HI AE C7 88 55 00 D4 A5 CC 09 42 80 7E 1F 78 91 8E 94 81 91 8D 8C 8D 8B 
HI HI AE C7 88 55 00 D4 A5 CC 09 42 77 8C 0A 83 8D 8C 91 A4 91 8E 8C 8E 8B 
HI HI AE C7 88 55 00 D4 A5 CC 09 42 6D 95 0E 8D 6B 8A 8F 7B 91 8E 8C 8E 8B 
HI HI AE C7 88 55 00 D4 A5 CC 09 42 64 9C 01 87 8B 89 8F 8F 91 8E 8C 8E 8B 
HI HI AE C7 78 55 00 D4 A5 CC 09 42 5B 9F 01 88 8A 89 95 7A 91 8E 8C 8E 8B 
HI HI AE 07 88 55 00 D4 A5 CC 09 42 55 9F 01 85 8A 89 95 7F 91 8E 8C 8E 8B 
HI HI AE 07 88 55 00 D4 A5 CC 09 42 50 9C 06 84 8A 89 95 83 91 8E 8C 8E 8B 
HI HI AE 07 88 55 00 D4 A5 CC 09 42 4E 97 0C 82 8A 89 95 78 91 8E 8D 8E 8B 
HI HI AE 07 88 55 00 D4 A5 CC 09 42 4F 92 1C 78 8B 89 96 73 91 8E 8D 8E 8B 
HI HI AE 07 88 55 00 D4 A5 CC 09 42 52 8E 13 8D 8E 8B 98 7F 91 8E 8D 8E 8B 
HI HI AE 07 88 55 00 D4 A5 CC 09 42 54 8A       8A 8B 98    90 8F 8D 8E 8B 
HI HI AE 07 88 55 00 D4 A5 CC 09 42 59 87 1D 8B 8A 8E 98 73 91 8F 8D 8E 8B 

AS25329C   03OCT2001
19:20-19:33(JST)
Freq. 435.804-.787

HI HI AE C7 88 55 00 D4 50 30 09 4D 4A AF 66 63 9C 97 B0 6F 8F 8C 8F 91 8D 
HI HI AE C7 88 55 00 D4 50 30 09 4D 3C A4 59 63 9C 97 B0 78 8F 8C 8F 91 8D 
HI HI AE C7 88 55 00 D4 50 30 09 4D 32 94 59 63 9C 97 B0 74 8F 8C 8F 91 8D 
HI HI AE C7 88 55 00 D4 50 30 08 4D 2D 83 53 63 9C 97 AF 75 8F 8C 8F 91 8D 
HI HI AE C7 88 55 00 D4 50 30 09 4D 2F 70 26 75 96 92 98 7E 8F 8C 8F 91 8D 
HI HI AE C7 88 55 00 D4 50 30 09 4D 34 5F 0D 81 90 8D 93 71 8F 8C 8F 90 8D 
HI HI AE C7 88 55 00 D4 50 30 09 4D 3E 52 06 84 8D 8B 91 66 8F 8C 8F 90 8D 
HI HI AE C7 88 55 00 D4 50 30 09 4D 4B 4A 04 85 8B 8A 8F 83 8F 8C 8F 90 8D 
HI HI AE C7 88 55 00 D4 50 30 09 4D 59 4B 04 85 8B 89 95 7D 8F 8C 8F 90 8D
HI HI AE 07 88 55 00 D4 50 30 09 4D 5D 4A 01 87 8A 8A 95 7E 8F 8C 8F 91 8D 
HI HI AE 07 88 55 00 D4 50 30 09 4D 6F 50 06 83 8A 89 95 69 8F 8C 8F 91 8D
HI HI AE 07 88 55 00 D4 50 30 09 4D 76 59 0B 82 8A 77 95 5C 8F 8C 8F 91 8D 
HI HI AE 07 88 55 00 D4 50 30 09 4D 79 64 23 75 8B 8A 96 7B 8F 8D 8F 91 8D 
HI HI AE 07 88 55 00 D4 50 30 09 4D 78 70 45 63 8D 8B 97 5E 8F 8D 8F 91 8D 
HI HI AE 07 88 55 00 D4 50 30 09 4D 73 78 49 63 8D 8C 97 4E 8F 8D 90 91 8D
HI HI AE 07 88 55 00 D4 50 30 09 4D 6C 7D 47 63 8E 8C 97 59 8F 8D 90 91 8D 
HI HI AE C7 88 55 00 D4 51 30 09 4D 63 7D 4E 61 8E 8C 98 5E 8F 8D 90 91 8D  

AS25302C    01OCT2001
19:34-19:39(JST)
FREQ/  435.788-.787MHz
 
HI HI AE 07 88 55 00 D4 83 6D 09 43 4A 5A 32 6D 8C 8A 97 69 90 91 8E 8C 8C 
HI HI AE 07 88 55 00 D4 83 6D 09 43 4D 5B 58 5A 8E 8C 99 48 90 91 8E 8C 8C 
HI HI AE 07 88 55 00 D4 83 6D 09 43 4F 5C 5A 5A 8F 8D 9A 42 91 91 8E 8C 8C 
HI HI AE 07 88 55 00 D4 83 6D 09 43 50 5C 53 5E 8F 8D 9A 73 91 91 8E 8C 8C 
HI HI AE 07 88 55 00 D4 83 6D 09 43 50 5C 54 5D 90 8E 9B 9B 91 91 8E 8C 8C 
HI HI AE 07 88 55 00 D4 83 6D 09 43 4F 5C 50 5F 90 8E 9B 7E 
    
AS25262C  28SEP2001
20:23-20:37(JST)
FREQ. 435.805-.786MHz

HI HI AE C7 88 55 00 D4 2A BF 09 0D 90 51 53 63 9C 98 B0 83 8F 8D 91 92 8F
HI HI AE C7 88 55 00 D4 2A BF 09 0D 8F 51 52 63 9C 97 B0 84 8F 8D 91 92 8FI 
HI HI AE C7 88 55 00 D4 2A BF 09 9D 8C 48 52 63 9C 97 B0 63 8F 8D 91 92 8F 
HI HI AE C7 88 55 00 D4 2A BF 09 0D 86 41 52 63 9C 97 B0 6C 8F 8D 91 92 8F 
HI HI AE C7 88 55 00 D4 2A BF 09 0D 84 3A 52 63 9C 98 B0 85 8F 8D 92 92 8F 
HI HI AE C7 88 55 00 D4 2A BF 09 0D 7E 34 54 63 9C 97 B0 62 8F 8D 92 92 8F 
HI HI AE C7 88 55 00 D4 2A BF 09 0D 75 2F 55 63 9C 56 B0 60 8F 8D 92 92 8F 
HI HI AE C7 88 55 00 D4 2A BF 09 0D 71 2B 49 65 9C 97 A7 6D 8F 8D 92 92 8F 
HI HI AE C7 88 55 00 D4 2A BF 09 0D 68 29 55 65 9C 95 98 85 8F 8D 92 92 8E 
HI HI AE C7 88 55 00 D4 2A BF 09 0D 62 28 0C 83 8F 8D 93 7E 8F 8D 92 92 8E 
HI HI AE C7 88 55 00 D4 2A BF 09 0D 5A 29 06 85 8D 8B 91 68 8F 8E 92 92 8E 
HI HI AE C7 88 55 00 D4 2A BF 09 0D 5E 2D 02 85 8D 8A 95 65 8F 8E 93 92 8E 
HI HI AE C7 88 55 00 D4 2A BF 09 0D 6E                      8F 8E 93 92 8E 
HI HI AE C7 88 55 00 D4 2A BF 09 0D 47 3A 00 89 8A 89 95 7B 8F 8E 93 92 8E 
HI HI AE C7 88 55 00 D4 2A BF 09 0D 40 43 02 86 8A 89 95 5E 8E 8E 93 92 8E
HI HI AE 07 88 55 00 D4 3A BF 09 0D 3F 4D 09 83 8A 86 95    8F 8E 93 92 8E 
HI HI AE O7 88 55 00 D4 2A BF 09 0D 3C 59 1F 77 8B 8A 96 86 8F 8E 93 93 8E 
HI HI AE 07 87 55 00 D4 2A BF 09 0D 3C 66 46 64 8D 8B 98 5B 8F 8E 93 93 8E  
HI HI AE C7 88 55 00 D4 2A BF 09 0D 3C 68    59 8E 8C 99 5F 8F 8E 93 93 8E

 
------------------------¡¡£Æ£Ï-£²£¹¤Îµ°Æ»Í×ÁÇ¡¡------------------------------        
 
¡¡¡¡¢£ µ°Æ»Í×ÁÇ£±¡§¡Öjamsat¡Ýkeps¡§£±£°£³£¹¡×¤è¤ê         
¡¡¡¡¡¡¡¡¡¡¡¡¡¡¡¡¡¡¡¡SB KEPS @ AMSAT  $ORB01277.N
¡¡¡¡¡¡¡¡¡¡¡¡¡¡¡¡¡¡¡¡2Line Orbital Elements 01277.AMSAT

HR AMSAT ORBITAL ELEMENTS FOR AMATEUR SATELLITES IN NASA FORMAT
FROM WA5QGD FORT WORTH,TX October 4, 2001
SEND SUBSCRIBE/UNSUBSCRIBE TO majordomo@amsat.org ONLY
BID: ORB01277.N

¡¡DECODE 2-LINE ELSETS WITH THE FOLLOWING KEY:
¡¡1 AAAAAU 00  0  0 BBBBB.BBBBBBBB  .CCCCCCCC  00000-0  00000-0 0  DDDZ
¡¡2 AAAAA EEE.EEEE FFF.FFFF GGGGGGG HHH.HHHH III.IIII JJ.JJJJJJJJKKKKKZ
¡¡KEY: A-CATALOGNUM B-EPOCHTIME C-DECAY D-ELSETNUM E-INCLINATION F-RAAN
¡¡G-ECCENTRICITY H-ARGPERIGEE I-MNANOM J-MNMOTION K-ORBITNUM Z-CHECKSUM

FO-29
1 24278U 96046B   01275.66636033  .00000062  00000-0  96518-4 0 04565
2 24278 098.5272 126.2245 0351853 083.3055 280.7989 13.52784296253177

 ¢£ µ°Æ»Í×ÁÇ£²¡§¡Öjamsat¡Ýkeps¡§£±£°£´£°¡×¤è¤ê
¡¡¡¡¡¡¡¡¡¡¡¡¡¡¡¡SB KEPS @ AMSAT  $ORB01277.O
¡¡¡¡¡¡¡¡¡¡¡¡¡¡¡¡Orbital Elements  01277.OSCAR

HR AMSAT ORBITAL ELEMENTS FOR OSCAR SATELLITES
FROM WA5QGD FORT WORTH,TX October 4, 2001
SEND SUBSCRIBE/UNSUBSCRIBE TO majordomo@amsat.org ONLY
BID: ORB01277.O
TO ALL RADIO AMATEURS BT
¡¡
Satellite: FO-29
Catalog number: 24278
Epoch time:      01275.66636033
Element set:    0456
Inclination:      098.5272 deg
RA of node:       126.2245 deg
Eccentricity:    0.0351853
Arg of perigee:   083.3055 deg
Mean anomaly:     280.7989 deg
Mean motion:   13.52784296 rev/day
Decay rate:        6.2e-07 rev/day^2
Epoch rev:           25317
Checksum:              328

-------------------¡¡¡¡FO-29¡ÊJAS-2)¤Î¥Æ¥ì¥á¥È¥ê¤Ë´Ø¤¹¤ë¾ðÊó¡¡¡¡----------------------¡¡
¡¡
£²¡Ë¾åµ­£±£°·î£¶Æü¡ÊÅڡˤΥƥì¥á¥È¥ê¤ÎºÇ½ª¹Ô¤òʬÀϤ·¤Æ¤ª¤­¤Þ¤¹.

AS25369C1   06OCT2001
18:22-18:32(JST)
FREQ. 435.802-.790MHz
HI HI AE 07 88 55 00 D4 A5 CC 09 42 59 87 1D 8B 8A 8E 98 73 91 8F 8D 8E 8B 

¥Æ¥ì¥á¥È¥ê¡¡  Æâ¡¡ÍÆ¡¡ ¡¡      ´¹»»»»ÃÍ¡¡Ã± °Ì
£³£Ã	¼§µ¤¥»¥ó¥µ¡¼£Ú¼´=	43627.4	[nT]
£³£Ä	¼§µ¤¥»¥ó¥µ£Ø¼´	=	66176.5	[nT]
£´£Á	ÂÀÍÛÅÅÃÓȯÀ¸ÅÅή=	¡¡284.3	[mA]
£´£Â	£Â½¼ÊüÅÅÅÅή	=	  724.4	[mA]
£´£Ã	£Âü»ÒÅÅ°µ	=	   14.9	[V]
£´£Ä	£ÂÃæ´Öü»ÒÅÅ°µ	=	    6.8	[V]
£µ£Á	¥Ð¥¹ÅÅ°µ	=	   14.9	[V]
£µ£Â	£Ê£Ô£ÁÁ÷¿®ÅÅÎÏ	=	  649.4	[mW]
£µ£Ã 	¹½Âβ¹ÅÙ£±	=	   25.6	[¡î]
£µ£Ä	¹½Âβ¹ÅÙ£²	=	   26.3	[¡î]
£¶£Á	¹½Âβ¹ÅÙ£³	=	   27.1	[¡î]
£¶£Â	¹½Âβ¹ÅÙ£´	=	   26.7	[¡î]
£¶£Ã	£Â¥»¥ë²¹ÅÙ	=	   27.9	[¡î]

 ==========================¡¡FO-29¡Ê¤Õ¤¸£³¹æ¡Ë¤ÎQSO¾ðÊóÅù¡¡======================
   
¡¡£³)[jamsat-bb:

 ===============================================================================
¡¡¡¡¡¡£´¡Ë£Ê£Á£Ò£Ì ¤Î¥Û¡¼¥à¥Ú¡¼¥¸¤Ë±¿ÍÑͽÄ꤬µ­ºÜ¤µ¤ì¤Æ¤¤¤Þ¤·¤¿¤Î¤Ç¤´¾Ò²ð¤·¤Þ¤¹¡¥
       ¡Ê http://www.jarl.or.jp/Japanese/3_Fuji/new/uy.htm ¡Ë

        ¢£ ¤Õ¤¸£³¹æ¡¿FO¡¼29/JAS-2 ¢£  
  ¡¡
¡¡¡¡¡¡¡¡¡¡¡ö¡ö¡ö¡¡±¿ÍÑͽÄê¤Ë¤Ä¤¤¤Æ¡¡¡ö¡ö¡ö

¡¡£··î£²Æü¡Ê·î¡Ë¡¡¡Á¡¡£±£°·î£±Æü¡Ê·î¡Ë¥¢¥Ê¥í¥°·Ï±¿ÍÑ 


¡¡¡¡¡ö¤Ê¤ª¡¤±¿ÍÑͽÄê¤ÏÅÔ¹ç¤Ë¤è¤êÊѹ¹¤¹¤ë¤³¤È¤¬¤¢¤ê¤Þ¤¹¤Î¤Çͽ¤á¤´Î»¾µ´ê¤¤¤Þ¤¹¡£

¡¡¾È²ñÀè¡¡¡§¡¡lab@jarl.or.jp

¡¡ºÇ¿·¤Î¾ðÊó¤Ï¥Æ¥ì¥Û¥ó¥µ¡¼¥Ó¥¹¡Ê£°£³¡Ý£³£¹£´£²¡Ý£±£°£°£°¡Ë¤ò¤ªÊ¹¤­¤¯¤À¤µ¤¤¡£¡¡¡¡
¡¡°Ê¸å¤Î±¿ÍѤˤĤ­¤Þ¤·¤Æ¤ÏÊ¿À®£±£³Ç¯£±£°·î¾å½Ü¤Ë¤ªÃΤ餻Ãפ·¤Þ¤¹¡£
¡¡¡¡¡¡¡¡
-----------------------    £Æ£Ï¡Ý£²£°¡ÊJAS-£±£â¡ËÆ»Í×ÁÇ   -------------------------
 ¡¡£µ¡Ë
 ¡¡¢£ µ°Æ»Í×ÁÇ£± ¡§½Ðŵ¤Ï£Æ£Ï-£²£¹¡Ö¤Õ¤¸£³¹æ¡×¤ËƱ¤¸¡¥
  
FO-20
1 20480U 90013C   01250.65657922  .00000011  00000-0  89059-4 0  3392
2 20480  99.0523 303.6413 0540659 122.4094 243.0493 12.83296964542674
 
 ¡¡¢£ µ°Æ»Í×ÁÇ£² ¡§½Ðŵ¤Ï£Æ£Ï¡Ý£²£¹¡Ö¤Õ¤¸£³¹æ¡×¤ËƱ¤¸¡¥
               
Satellite: FO-20
Catalog number: 20480
Epoch time:      01276.22830360
Element set:     345
Inclination:       99.0497 deg
RA of node:       324.4079 deg
Eccentricity:    0.0540834
Arg of perigee:    64.5557 deg
Mean anomaly:     301.0486 deg
Mean motion:   12.83297914 rev/day
Decay rate:       -9.0e-08 rev/day^2
Epoch rev:           54595
Checksum:              309

¡¡--------------------------------------------------------------------------------
¡¡
¡¡        ¢£ ¤Õ¤¸£²¹æ¡¿£Æ£Ï¡Ý£²£°/JAS-1£â ¢£  ¡¡   
            
¡¡¡¡¡¡¡¡¡¡¡¡¡¡¡¡¡¡¡¡¡Ö¤Õ¤¸£²¹æ¡×¡¡¸½¶·                                                                                  
             
